• în România
  • Lista ţărilor
  • Pe 7 zile
  • Temperatura apei
  • Hartă satelitară
  • Meteo pe hartă
  • Widget-uri
  • user-avatar
    Intrare

    Meteo pe oră la Yulara

    Astăzi, 26 Septembrie, Marţi

    Timp Temperatura Precipitaţii Vânt Presiune Umiditate
    00:00 +25°C° 0 mm 5 m/s 714 mmHg 20%
    01:00 +23°C° 0 mm 5 m/s 714 mmHg 22%
    02:00 +22°C° 0 mm 4 m/s 714 mmHg 24%
    03:00 +22°C° 0 mm 4 m/s 713 mmHg 25%
    04:00 +21°C° 0 mm 4 m/s 713 mmHg 26%
    05:00 +21°C° 0 mm 3 m/s 713 mmHg 28%
    06:00 +21°C° 0 mm 3 m/s 714 mmHg 29%
    07:00 +25°C° 0 mm 5 m/s 714 mmHg 26%
    08:00 +27°C° 0 mm 7 m/s 715 mmHg 23%
    09:00 +31°C° 0 mm 10 m/s 715 mmHg 21%
    10:00 +33°C° 0 mm 11 m/s 715 mmHg 19%
    11:00 +34°C° 0 mm 11 m/s 715 mmHg 18%
    12:00 +37°C° 0 mm 12 m/s 715 mmHg 16%
    13:00 +38°C° 0 mm 12 m/s 714 mmHg 15%
    14:00 +38°C° 0 mm 12 m/s 714 mmHg 14%
    15:00 +39°C° 0 mm 13 m/s 713 mmHg 13%
    16:00 +38°C° 0 mm 11 m/s 713 mmHg 14%
    17:00 +37°C° 0 mm 9 m/s 713 mmHg 15%
    18:00 +35°C° 0 mm 8 m/s 713 mmHg 16%
    19:00 +33°C° 0 mm 7 m/s 714 mmHg 19%
    20:00 +32°C° 0 mm 6 m/s 714 mmHg 21%
    21:00 +29°C° 0 mm 5 m/s 715 mmHg 23%
    22:00 +28°C° 0 mm 5 m/s 715 mmHg 25%
    23:00 +28°C° 0 mm 5 m/s 715 mmHg 27%

    Mâine, 27 Septembrie, Miercuri

    Timp Temperatura Precipitaţii Vânt Presiune Umiditate
    00:00 +27°C° 0 mm 5 m/s 715 mmHg 29%
    01:00 +26°C° 0 mm 4 m/s 715 mmHg 31%
    02:00 +26°C° 0 mm 4 m/s 715 mmHg 32%
    03:00 +25°C° 0 mm 4 m/s 714 mmHg 33%
    04:00 +23°C° 0 mm 4 m/s 714 mmHg 34%
    05:00 +22°C° 0 mm 5 m/s 714 mmHg 35%
    06:00 +20°C° 0 mm 6 m/s 715 mmHg 35%
    07:00 +21°C° 0 mm 6 m/s 715 mmHg 34%
    08:00 +23°C° 0 mm 5 m/s 716 mmHg 33%
    09:00 +25°C° 0 mm 5 m/s 717 mmHg 32%
    10:00 +26°C° 0 mm 5 m/s 717 mmHg 32%
    11:00 +27°C° 0 mm 6 m/s 717 mmHg 32%
    12:00 +28°C° 0 mm 6 m/s 717 mmHg 32%
    13:00 +27°C° 0,1 mm 7 m/s 716 mmHg 40%
    14:00 +24°C° 0,1 mm 7 m/s 716 mmHg 47%
    15:00 +22°C° 0,1 mm 8 m/s 715 mmHg 55%
    16:00 +21°C° 0,3 mm 8 m/s 716 mmHg 59%
    17:00 +20°C° 0,3 mm 7 m/s 716 mmHg 63%
    18:00 +18°C° 0,3 mm 7 m/s 717 mmHg 67%
    19:00 +19°C° 0,7 mm 6 m/s 717 mmHg 65%
    20:00 +17°C° 0,7 mm 5 m/s 717 mmHg 62%
    21:00 +18°C° 0,7 mm 3 m/s 718 mmHg 60%
    22:00 +19°C° 0,1 mm 3 m/s 718 mmHg 56%
    23:00 +19°C° 0,1 mm 2 m/s 717 mmHg 53%

    Poimâine, 28 Septembrie, Joi

    Timp Temperatura Precipitaţii Vânt Presiune Umiditate
    00:00 +19°C° 0,1 mm 2 m/s 717 mmHg 49%
    01:00 +19°C° 0,2 mm 2 m/s 717 mmHg 52%
    02:00 +18°C° 0,2 mm 2 m/s 717 mmHg 54%
    03:00 +18°C° 0,2 mm 2 m/s 717 mmHg 57%
    04:00 +17°C° 0,9 mm 3 m/s 717 mmHg 60%
    05:00 +17°C° 0,9 mm 4 m/s 717 mmHg 63%
    06:00 +15°C° 0,9 mm 4 m/s 718 mmHg 65%
    07:00 +15°C° 0,9 mm 5 m/s 718 mmHg 67%
    08:00 +16°C° 0,9 mm 5 m/s 719 mmHg 68%
    09:00 +16°C° 0,9 mm 5 m/s 719 mmHg 70%
    10:00 +16°C° 0,4 mm 5 m/s 719 mmHg 68%
    11:00 +17°C° 0,4 mm 6 m/s 719 mmHg 66%
    12:00 +17°C° 0,4 mm 6 m/s 719 mmHg 65%
    13:00 +17°C° 0,2 mm 6 m/s 718 mmHg 63%
    14:00 +19°C° 0,2 mm 6 m/s 717 mmHg 62%
    15:00 +19°C° 0,2 mm 6 m/s 717 mmHg 61%
    16:00 +19°C° 0 mm 5 m/s 717 mmHg 62%
    17:00 +19°C° 0 mm 4 m/s 717 mmHg 63%
    18:00 +19°C° 0 mm 4 m/s 717 mmHg 65%
    19:00 +19°C° 0,1 mm 4 m/s 718 mmHg 67%
    20:00 +18°C° 0,1 mm 4 m/s 718 mmHg 68%
    21:00 +18°C° 0,1 mm 4 m/s 719 mmHg 70%
    22:00 +18°C° 0,4 mm 4 m/s 718 mmHg 72%
    23:00 +18°C° 0,4 mm 4 m/s 718 mmHg 74%

    29 Septembrie, Vineri

    Timp Temperatura Precipitaţii Vânt Presiune Umiditate
    00:00 +17°C° 0,4 mm 4 m/s 718 mmHg 76%
    01:00 +17°C° 0,7 mm 4 m/s 718 mmHg 78%
    02:00 +17°C° 0,7 mm 4 m/s 717 mmHg 79%
    03:00 +17°C° 0,7 mm 4 m/s 717 mmHg 81%
    04:00 +16°C° 1,6 mm 5 m/s 717 mmHg 82%
    05:00 +16°C° 1,6 mm 5 m/s 718 mmHg 83%
    06:00 +16°C° 1,6 mm 5 m/s 718 mmHg 84%
    07:00 +17°C° 0,3 mm 6 m/s 719 mmHg 77%
    08:00 +18°C° 0,3 mm 7 m/s 719 mmHg 70%
    09:00 +21°C° 0,3 mm 9 m/s 719 mmHg 64%
    10:00 +22°C° 0,1 mm 8 m/s 719 mmHg 59%
    11:00 +23°C° 0,1 mm 7 m/s 719 mmHg 54%
    12:00 +24°C° 0,1 mm 7 m/s 719 mmHg 49%
    13:00 +26°C° 0 mm 6 m/s 719 mmHg 48%
    14:00 +26°C° 0 mm 5 m/s 718 mmHg 47%
    15:00 +26°C° 0 mm 4 m/s 718 mmHg 46%
    16:00 +24°C° 0,2 mm 6 m/s 718 mmHg 50%
    17:00 +23°C° 0,2 mm 7 m/s 718 mmHg 54%
    18:00 +22°C° 0,2 mm 8 m/s 718 mmHg 58%
    19:00 +21°C° 0,5 mm 8 m/s 718 mmHg 63%
    20:00 +20°C° 0,5 mm 8 m/s 719 mmHg 68%
    21:00 +18°C° 0,5 mm 7 m/s 720 mmHg 73%
    22:00 +18°C° 0,8 mm 8 m/s 719 mmHg 75%
    23:00 +17°C° 0,8 mm 8 m/s 719 mmHg 77%

    30 Septembrie, Sâmbătă

    Timp Temperatura Precipitaţii Vânt Presiune Umiditate
    00:00 +17°C° 0,8 mm 8 m/s 719 mmHg 79%
    01:00 +17°C° 0,5 mm 8 m/s 719 mmHg 79%
    02:00 +16°C° 0,5 mm 8 m/s 719 mmHg 80%
    03:00 +16°C° 0,5 mm 8 m/s 719 mmHg 80%
    04:00 +16°C° 1,1 mm 8 m/s 719 mmHg 80%
    05:00 +16°C° 1,1 mm 8 m/s 720 mmHg 81%
    06:00 +16°C° 1,1 mm 9 m/s 720 mmHg 81%
    07:00 +16°C° 0,7 mm 9 m/s 721 mmHg 81%
    08:00 +16°C° 0,7 mm 9 m/s 721 mmHg 80%
    09:00 +16°C° 0,7 mm 9 m/s 722 mmHg 80%
    10:00 +16°C° 1,7 mm 9 m/s 721 mmHg 80%
    11:00 +16°C° 1,7 mm 9 m/s 721 mmHg 80%
    12:00 +16°C° 1,7 mm 10 m/s 721 mmHg 80%
    13:00 +16°C° 0,8 mm 9 m/s 720 mmHg 78%
    14:00 +16°C° 0,8 mm 9 m/s 720 mmHg 76%
    15:00 +17°C° 0,8 mm 9 m/s 720 mmHg 73%
    16:00 +17°C° 0 mm 8 m/s 721 mmHg 73%
    17:00 +16°C° 0 mm 8 m/s 721 mmHg 74%
    18:00 +16°C° 0 mm 7 m/s 722 mmHg 74%
    19:00 +16°C° 0 mm 7 m/s 722 mmHg 75%
    20:00 +15°C° 0 mm 8 m/s 723 mmHg 77%
    21:00 +15°C° 0 mm 8 m/s 723 mmHg 78%
    22:00 +15°C° 0 mm 8 m/s 723 mmHg 79%
    23:00 +13°C° 0 mm 8 m/s 723 mmHg 81%

    1 Octombrie, Duminică

    Timp Temperatura Precipitaţii Vânt Presiune Umiditate
    00:00 +13°C° 0 mm 8 m/s 723 mmHg 82%
    01:00 +13°C° 0 mm 8 m/s 722 mmHg 83%
    02:00 +12°C° 0 mm 7 m/s 722 mmHg 83%
    03:00 +12°C° 0 mm 7 m/s 721 mmHg 84%
    04:00 +12°C° 0 mm 7 m/s 722 mmHg 85%
    05:00 +11°C° 0 mm 7 m/s 722 mmHg 86%
    06:00 +11°C° 0 mm 6 m/s 722 mmHg 87%
    07:00 +14°C° 0 mm 7 m/s 722 mmHg 79%
    08:00 +15°C° 0 mm 8 m/s 723 mmHg 71%
    09:00 +17°C° 0 mm 9 m/s 723 mmHg 62%
    10:00 +18°C° 0 mm 9 m/s 722 mmHg 57%
    11:00 +21°C° 0 mm 9 m/s 722 mmHg 51%
    12:00 +23°C° 0 mm 9 m/s 722 mmHg 45%
    13:00 +23°C° 0 mm 9 m/s 721 mmHg 42%
    14:00 +24°C° 0 mm 8 m/s 721 mmHg 40%
    15:00 +26°C° 0 mm 8 m/s 720 mmHg 37%
    16:00 +24°C° 0 mm 8 m/s 720 mmHg 38%
    17:00 +24°C° 0 mm 7 m/s 720 mmHg 39%
    18:00 +23°C° 0 mm 7 m/s 721 mmHg 40%
    19:00 +22°C° 0 mm 7 m/s 721 mmHg 42%
    20:00 +21°C° 0 mm 7 m/s 721 mmHg 44%
    21:00 +20°C° 0 mm 7 m/s 722 mmHg 46%
    22:00 +20°C° 0 mm 7 m/s 722 mmHg 47%
    23:00 +18°C° 0 mm 7 m/s 721 mmHg 48%
    Arată mai mult